Wind_Speed
19 18 19 20 20 21 22 21 21 22 21 21 21 20 20 19 20 20 20 19 18 17 17 17 17 18 18 19 18 18 18 19 18 18 17 17 16 14 12 10 9 8 8 8 8 9 10 11 11 11 11 10 8 8 8 8 8 7 7 7 7 7 6 6 6 5 4 3 4 5 6 9 11 10 9 8 8 7 6 6 6 7 6 6 7
19 18 19 21 21 22 22 21 21 21 21 20 20 19 19 19 19 20 20 19 18 17 17 17 17 17 17 18 18 18 18 19 19 18 18 17 16 15 12 10 9 8 8 8 9 10 10 11 11 11 10 9 8 7 7 7 7 7 7 7 7 7 6 6 5 4 3 4 5 6 7 9 10 9 7 6 6 5 5 6 6 6 5 6 6
19 18 19 20 21 21 21 21 21 20 20 20 19 19 19 19 19 19 20 19 18 16 16 16 16 16 17 18 17 17 18 19 19 19 19 19 18 16 14 11 9 9 8 9 10 10 11 11 11 11 10 8 8 7 7 7 7 7 7 7 6 6 6 6 5 4 4 5 5 6 8 9 8 6 6 5 5 4 4 5 5 5 5 5 6
18 18 18 19 20 20 20 20 20 20 19 19 18 18 18 19 19 19 19 19 17 16 15 16 16 16 17 17 17 17 18 19 19 20 20 20 19 18 15 11 10 9 9 9 10 11 11 11 11 11 10 9 8 7 7 7 7 7 7 7 6 6 6 6 5 5 5 5 5 6 7 6 6 5 5 4 3 3 3 4 4 4 4 5 6
16 17 17 18 19 19 19 19 19 18 18 18 18 18 18 19 19 19 19 18 16 15 15 15 16 16 16 16 16 17 18 18 19 20 21 21 20 19 16 12 10 10 9 10 11 11 11 11 12 11 10 9 8 7 7 8 8 7 7 6 6 6 6 6 5 4 4 4 5 5 5 5 4 4 3 2 2 2 2 3 3 3 4 5 5
15 16 17 17 18 18 18 17 17 17 17 17 17 17 17 18 18 18 18 17 15 14 14 15 16 16 16 16 16 16 17 18 19 20 21 22 21 20 17 12 10 10 10 10 11 12 12 12 12 11 10 9 8 7 7 8 8 7 6 6 6 5 5 5 5 4 3 4 5 5 5 4 3 3 2 1 1 2 2 2 2 3 3 4 4
16 16 16 16 17 17 17 17 16 16 16 16 16 16 17 17 17 17 17 15 14 14 14 15 16 16 16 15 15 16 17 18 19 20 22 22 22 20 17 12 9 10 11 11 12 12 12 12 12 11 10 8 7 7 8 8 8 7 6 5 5 5 5 4 4 3 3 4 4 4 4 3 2 1 0 1 1 1 2 2 2 2 2 3 3
17 16 16 15 16 16 17 16 16 16 16 16 16 16 17 17 17 17 16 14 13 13 14 14 15 16 16 15 15 15 16 18 19 20 22 23 22 20 18 12 9 10 12 12 12 12 12 11 11 11 9 7 6 7 8 8 7 6 6 6 5 5 4 4 4 3 3 4 4 4 3 2 1 0 1 1 1 1 1 1 1 1 1 1 2
16 15 15 14 15 15 16 16 16 16 16 16 16 16 17 17 17 16 15 13 12 13 14 14 15 16 16 15 15 15 16 17 18 20 22 24 23 20 17 12 8 10 12 13 13 13 12 11 11 11 9 7 6 7 8 7 6 6 6 6 5 5 4 4 4 3 3 3 3 3 2 1 1 1 1 2 2 2 1 1 1 1 0 0 1
15 15 15 14 14 14 15 15 16 17 17 17 17 17 18 18 17 16 14 12 12 13 14 14 15 16 16 16 15 16 17 18 18 20 22 23 22 20 17 11 8 10 12 13 13 13 12 12 11 11 9 7 5 6 6 5 5 7 7 6 5 5 4 4 4 3 2 2 2 2 2 1 2 2 3 3 3 3 2 2 2 2 2 1 1
16 16 16 16 15 15 15 15 16 17 17 17 18 18 18 18 17 16 14 13 13 13 14 15 16 16 16 16 15 16 17 19 19 20 22 23 22 19 16 10 8 10 12 13 13 13 13 12 11 10 9 7 5 4 5 4 5 7 7 6 5 4 4 4 4 3 2 1 2 2 2 2 2 3 4 4 4 4 3 3 3 3 3 3 3
16 17 17 17 17 17 17 17 17 18 18 18 18 19 19 19 17 16 14 13 13 14 15 15 16 16 16 16 16 17 19 20 20 21 22 23 21 18 15 9 7 10 12 13 12 12 12 12 12 11 9 8 5 4 4 4 5 6 6 6 5 5 4 4 4 3 2 1 1 1 1 1 2 3 4 5 5 5 5 5 5 5 5 5 5
17 17 18 18 19 19 19 19 20 20 19 19 19 19 19 19 17 16 15 14 14 14 15 16 16 17 17 16 16 18 20 21 22 21 22 23 21 18 13 8 6 9 12 13 11 11 11 12 11 11 10 8 6 4 4 5 5 5 5 6 6 6 5 4 3 3 2 1 1 1 1 1 2 3 4 5 6 6 6 6 6 6 7 7 7
18 18 19 20 20 21 21 21 21 22 21 20 20 19 19 18 17 16 15 14 15 15 16 16 17 18 17 17 17 19 21 23 23 22 23 23 21 17 12 7 6 8 11 13 12 10 10 11 11 11 10 9 7 5 5 5 5 5 6 6 6 6 5 4 3 2 2 1 1 1 2 2 3 4 5 6 7 7 7 7 8 8 8 8 8
18 19 20 21 22 22 21 22 22 22 21 21 20 19 18 18 17 17 16 16 16 16 16 17 18 18 17 17 18 20 22 24 24 24 23 23 20 17 12 6 6 8 10 12 12 11 10 10 10 10 10 9 8 7 6 5 6 6 6 7 7 7 6 5 4 3 2 2 2 2 3 3 4 4 5 6 7 8 8 8 9 9 9 9 9
17 18 20 22 23 23 23 23 22 22 21 21 20 19 18 18 18 17 17 17 18 17 17 18 18 18 18 18 20 21 23 25 26 25 23 22 19 16 12 6 6 7 9 11 12 11 10 10 10 10 10 9 9 8 7 7 7 7 7 7 7 7 7 6 5 4 3 2 3 3 3 3 4 4 5 6 7 8 8 9 9 9 9 10 10
18 18 20 21 23 24 24 24 23 22 21 21 20 19 19 18 18 19 19 19 19 17 17 18 18 18 18 19 21 22 23 25 26 26 24 21 19 16 12 7 6 7 8 10 12 12 11 10 10 10 9 9 9 9 9 8 8 8 8 8 8 8 7 6 6 5 4 3 3 3 3 3 4 5 6 6 7 8 8 9 9 10 10 10 10
18 19 20 21 23 24 24 23 23 21 21 21 20 20 19 19 19 20 20 20 18 17 17 18 18 18 20 21 22 23 24 25 27 27 24 21 18 16 12 7 7 7 7 9 11 12 11 11 10 10 9 8 9 9 10 9 9 9 8 9 8 8 7 7 7 6 5 4 4 4 4 4 5 6 6 7 8 8 8 9 9 10 10 10 10
19 19 20 21 23 24 23 21 20 19 19 19 20 19 19 19 19 20 20 19 17 17 18 18 19 20 22 23 24 24 25 26 27 27 25 22 18 15 11 8 7 7 7 8 11 12 12 11 10 11 9 9 9 10 11 10 10 10 9 9 9 8 7 7 7 7 6 6 6 6 6 6 6 7 7 7 8 8 9 9 10 10 10 11 11
19 19 20 21 23 24 22 19 18 18 18 18 18 19 19 18 19 19 19 18 17 17 18 19 20 22 24 25 25 25 26 26 26 26 25 23 19 15 11 8 7 7 7 9 10 12 13 12 10 11 10 9 10 10 11 11 10 10 10 10 9 9 8 7 7 7 7 7 7 7 7 8 8 8 8 8 9 9 9 10 10 11 11 11 12
19 19 19 20 22 23 20 18 17 18 17 17 17 18 18 18 18 20 20 19 19 18 19 21 22 23 24 26 26 25 25 25 25 25 25 23 20 15 10 8 7 8 8 9 11 12 14 14 12 12 12 10 11 11 10 12 12 11 11 11 10 9 9 8 8 8 8 8 8 8 9 9 10 10 10 9 9 10 10 10 11 11 12 12 12
20 20 19 20 21 22 19 18 17 18 17 17 18 18 18 18 19 20 21 20 20 20 21 23 23 24 24 25 25 25 25 24 24 24 24 23 20 16 12 9 8 9 9 10 12 13 14 15 14 15 14 11 12 12 10 12 15 13 11 10 11 10 9 9 8 9 9 8 9 9 10 10 11 11 11 11 11 11 11 10 11 12 12 12 12
20 20 20 20 21 21 19 17 17 18 18 18 18 18 17 17 19 20 21 21 21 21 22 24 24 25 25 24 24 24 23 23 23 23 23 22 20 17 14 11 9 9 9 10 12 14 15 15 15 16 16 14 13 12 10 12 16 15 11 10 11 11 10 10 9 9 9 9 9 10 10 11 11 11 12 12 12 12 12 11 11 12 12 13 13
19 20 20 20 20 21 20 17 16 17 17 17 17 16 16 17 19 20 21 22 23 23 24 25 26 26 25 24 24 23 22 22 22 22 23 22 20 17 14 13 11 10 10 10 12 14 15 16 16 17 18 17 15 13 12 13 16 15 13 12 12 12 11 11 10 10 10 9 9 10 11 11 11 11 11 12 12 13 13 12 12 12 12 12 13
19 20 20 20 20 21 20 17 15 16 16 16 16 16 16 18 19 20 22 24 25 25 25 26 27 27 27 26 25 23 22 22 22 21 22 22 20 17 16 15 13 12 11 11 12 14 16 17 18 18 19 19 17 15 14 15 16 16 15 13 12 13 13 12 12 11 10 10 10 10 11 11 12 12 12 12 12 12 13 13 13 12 12 12 12
20 20 20 20 20 21 21 19 16 15 15 16 17 17 17 18 20 21 22 24 26 26 26 27 27 27 27 27 25 24 23 23 22 21 21 22 19 18 18 18 16 14 13 12 13 15 17 18 18 19 19 20 19 17 16 16 17 18 16 13 12 13 14 14 13 12 11 10 10 10 10 11 11 12 12 13 13 12 12 13 13 13 12 12 12
21 21 21 20 20 20 21 19 17 15 14 17 19 18 17 18 19 20 21 23 24 25 26 27 27 27 27 27 25 24 24 23 23 21 21 21 19 19 20 20 18 16 15 14 14 15 17 19 19 20 20 21 21 20 18 16 17 18 17 14 13 14 15 15 14 13 12 12 11 11 10 10 10 11 12 13 13 13 13 13 12 12 12 12 12
21 21 21 20 18 19 20 20 18 16 16 17 17 17 16 15 15 16 18 20 22 22 23 25 26 27 27 27 26 25 24 23 23 21 21 21 21 21 21 21 19 18 17 15 15 16 18 19 20 20 20 20 20 20 19 17 17 17 16 15 15 16 16 14 13 14 14 13 13 12 11 10 10 10 12 12 13 13 13 13 12 12 12 12 12
20 20 20 18 16 17 19 20 18 17 16 15 14 14 13 12 13 15 16 18 19 18 19 22 24 25 26 26 26 25 24 23 23 22 22 22 22 22 22 22 21 20 18 17 16 16 17 19 20 20 19 19 19 20 20 19 17 17 17 17 18 18 17 14 13 13 13 13 13 12 12 11 11 11 12 13 13 14 13 13 13 12 12 12 12
19 19 19 17 15 16 18 19 18 17 16 14 14 13 12 14 16 16 16 17 17 17 18 21 23 25 26 26 25 24 24 23 22 22 22 22 22 22 22 23 22 21 19 17 16 16 17 18 19 18 17 17 19 20 21 20 18 18 19 19 20 20 17 14 13 13 11 12 13 12 12 13 14 13 13 13 13 14 13 13 13 12 12 12 12
19 19 18 16 14 16 18 19 19 18 17 16 15 15 16 19 20 17 16 16 17 17 19 21 23 24 25 25 24 23 23 22 22 22 22 22 22 22 22 23 23 22 20 17 16 16 17 18 18 18 17 17 19 21 22 20 18 18 20 21 22 20 17 15 14 13 12 12 13 13 13 14 14 14 13 13 13 14 13 13 13 13 13 13 13
19 18 16 15 14 16 17 18 19 18 17 17 16 17 18 18 17 15 15 15 16 17 19 20 22 24 25 24 23 22 22 21 21 21 21 21 21 22 22 23 23 22 21 19 18 18 18 18 18 18 18 18 20 22 22 20 19 20 21 21 21 19 17 15 15 14 13 13 13 13 13 13 13 13 13 13 13 14 13 13 13 13 13 13 13
18 16 14 14 14 16 18 18 18 17 16 15 16 16 16 13 11 10 12 13 15 17 19 20 22 24 24 23 22 21 20 20 20 20 19 20 21 22 22 23 23 23 22 21 19 19 19 19 19 19 19 20 21 23 22 21 20 20 20 19 18 17 15 14 15 15 14 15 14 13 13 13 12 13 13 14 14 14 13 13 12 13 13 13 13
17 14 13 13 13 16 18 18 18 17 14 12 13 16 14 11 8 7 9 11 14 17 18 20 21 22 22 21 20 19 19 19 19 19 18 20 21 22 23 24 24 23 22 21 19 19 19 19 19 19 20 21 22 23 22 21 20 19 18 17 16 16 15 14 14 15 16 16 15 14 14 13 13 13 14 15 14 14 14 13 12 12 13 13 13
16 14 13 12 12 15 17 18 16 13 11 9 11 15 15 10 8 6 8 10 13 16 17 18 19 20 19 18 18 18 18 18 18 17 18 20 22 23 24 24 25 24 23 21 20 19 19 19 19 20 21 21 22 23 22 21 19 18 17 16 16 16 16 16 16 16 16 16 15 14 14 14 14 14 14 15 15 15 14 13 13 13 12 13 12
16 15 14 13 12 14 16 16 13 12 12 9 9 16 15 11 10 8 8 11 13 15 16 17 18 18 17 16 16 17 18 18 17 17 20 21 22 23 24 24 25 25 24 22 21 21 20 19 19 20 20 20 22 23 22 20 20 18 17 15 16 16 16 17 17 17 16 16 15 14 14 14 15 15 15 15 15 16 15 13 13 13 12 12 12
16 15 14 12 12 14 15 14 13 13 14 11 10 15 15 13 12 10 10 11 13 15 16 17 17 17 15 15 15 16 17 17 17 19 22 22 22 22 23 23 24 24 24 23 22 21 20 20 20 20 20 19 20 22 22 22 21 18 17 16 16 16 17 18 17 16 16 16 15 15 15 16 16 16 15 15 15 16 15 14 13 12 12 12 12
16 15 13 11 11 13 14 14 14 15 15 14 13 15 15 16 15 12 11 12 13 14 15 16 17 16 15 14 16 17 17 16 17 21 22 21 22 22 22 23 23 23 25 25 23 22 21 21 21 20 20 19 20 21 22 23 21 18 17 17 17 17 17 17 16 16 16 16 16 16 17 17 17 17 16 15 15 16 15 14 13 13 13 13 12
17 16 14 12 11 12 14 15 15 16 17 18 17 17 17 17 17 15 12 11 12 13 15 16 17 16 14 15 17 17 17 16 17 21 22 21 21 22 22 23 24 24 25 25 24 24 23 23 22 20 21 20 21 22 22 22 20 19 19 18 17 17 17 16 17 17 17 17 17 17 17 17 17 16 16 15 15 15 15 13 13 12 12 12 11
17 17 14 11 10 11 14 15 16 17 18 18 18 18 18 18 19 18 14 12 13 14 15 17 18 16 14 15 17 17 18 17 17 20 21 20 21 22 22 22 24 24 25 25 26 27 26 24 22 21 21 21 21 22 21 20 20 20 19 18 17 17 17 16 16 17 18 18 17 16 17 17 17 16 15 15 14 14 13 12 12 12 11 11 10
16 17 15 12 10 11 13 15 16 17 18 18 18 18 19 19 21 22 19 15 14 15 16 18 19 18 16 16 17 18 19 19 19 20 21 21 21 22 22 22 22 23 23 24 27 29 28 24 22 21 21 21 21 21 20 20 20 21 20 18 17 17 17 16 17 17 18 18 16 16 17 17 17 16 15 14 14 13 13 12 12 11 12 11 10
15 16 16 13 11 11 12 14 16 17 18 19 20 20 20 20 21 24 25 22 18 17 18 19 19 19 18 18 19 20 20 20 19 20 21 22 21 21 21 20 20 20 21 24 27 26 25 24 22 21 20 21 20 19 20 20 21 21 20 18 17 18 18 17 17 17 16 16 16 16 16 17 16 15 14 13 12 12 13 13 12 12 12 11 10
14 15 15 14 12 12 12 14 16 18 19 19 20 20 20 19 20 24 27 27 25 23 22 21 21 21 20 19 19 20 22 21 20 20 21 22 22 21 21 20 19 19 20 22 21 18 19 20 22 21 20 20 19 20 21 22 22 20 19 18 19 19 19 18 17 16 16 15 15 15 15 16 15 14 13 12 12 13 13 13 13 13 12 11 10
14 15 15 15 14 13 13 14 16 18 19 19 19 19 19 19 20 23 27 29 29 29 26 23 24 24 22 21 21 22 23 22 22 22 21 22 22 21 21 20 19 18 18 17 12 12 15 17 20 21 21 21 21 23 24 24 23 20 18 18 19 20 21 19 17 16 17 16 15 15 15 15 14 13 13 12 13 13 13 13 13 13 12 11 11
14 15 15 16 15 14 12 12 14 16 18 19 19 19 19 19 20 23 27 29 31 31 28 25 25 26 24 24 23 24 24 22 23 23 23 23 23 21 20 19 18 17 17 14 12 13 14 17 20 20 21 22 22 24 27 27 25 21 19 19 19 21 21 19 17 17 17 17 16 16 15 15 14 14 13 13 14 14 13 13 14 13 12 11 11
14 15 16 16 15 14 12 12 13 15 17 18 19 20 20 20 21 23 26 28 31 31 30 28 29 30 27 25 24 26 25 24 24 24 25 26 24 23 21 19 18 17 15 14 15 15 16 18 20 19 19 21 21 24 27 28 27 22 19 19 20 20 18 17 16 17 17 17 17 18 17 16 15 15 13 13 14 13 12 13 13 12 11 11 11
16 16 15 14 13 12 12 13 14 15 16 17 18 20 20 21 22 24 27 29 31 32 33 32 33 34 33 28 26 27 27 27 26 25 25 25 25 25 24 20 19 19 16 14 15 17 18 18 18 18 19 20 20 22 23 24 23 19 17 17 17 16 15 14 15 16 17 17 18 18 18 18 17 15 12 12 13 12 12 12 12 12 12 11 11
18 17 15 13 12 12 12 14 15 15 16 17 18 20 21 22 23 25 28 32 33 33 33 33 33 36 35 32 28 27 28 28 28 27 26 25 25 25 23 21 20 20 18 17 16 17 17 15 14 15 17 17 17 19 19 18 16 15 15 15 15 15 14 14 15 16 17 18 18 18 18 18 17 15 12 12 12 12 12 13 12 12 12 13 13
19 19 17 15 15 14 14 14 15 17 18 18 19 21 22 24 25 25 28 32 34 33 31 32 34 36 36 35 32 30 29 29 29 29 28 26 24 23 22 22 22 20 19 18 17 16 16 14 13 13 15 15 16 15 14 14 13 14 15 15 16 16 15 15 16 17 18 18 17 17 17 17 16 14 14 14 14 14 14 13 13 13 13 14 14
21 21 19 17 17 17 17 17 17 18 20 20 21 22 24 26 27 25 25 29 32 33 32 33 37 37 36 35 33 31 29 28 30 31 29 26 24 21 21 22 22 22 20 18 18 16 15 13 12 13 13 14 15 15 13 12 13 14 15 16 17 16 16 16 16 17 17 17 17 16 16 16 14 13 14 15 15 15 14 14 13 13 14 14 14
20 21 20 19 19 19 19 20 20 20 21 22 23 24 26 28 28 25 24 25 28 32 33 34 35 36 34 33 31 31 30 29 30 31 30 27 25 22 21 23 23 23 21 19 19 17 14 12 12 12 12 12 14 14 13 13 13 14 15 16 17 17 17 16 16 17 17 17 17 16 16 15 14 14 14 14 15 15 15 15 15 15 15 15 15
Wind_Direction
302 309 313 315 314 313 312 311 311 311 313 314 316 317 318 319 320 319 319 321 326 331 337 341 341 342 342 344 349 351 350 349 349 349 347 344 343 342 342 346 353 355 350 344 341 341 341 340 340 340 344 354 1 7 10 10 9 2 355 353 356 358 2 9 16 21 20 22 37 50 60 68 70 71 72 74 77 77 80 84 84 86 89 90 89
305 310 312 313 312 311 310 310 309 310 311 312 313 314 315 317 317 316 316 318 325 332 336 337 336 337 339 343 347 348 346 345 346 347 346 343 342 343 344 350 357 357 353 345 342 343 344 342 342 344 349 359 5 10 9 7 5 360 359 358 359 0 1 8 18 24 36 53 57 63 64 62 65 71 73 73 75 77 81 83 82 86 92 92 89
304 309 311 310 309 309 309 308 307 307 308 308 310 312 314 315 315 314 314 318 325 331 332 331 331 334 339 343 344 343 342 343 344 345 345 342 342 344 347 352 356 358 354 346 343 344 344 344 344 346 350 358 5 6 3 1 357 355 355 356 360 3 1 5 15 21 30 38 37 41 45 51 59 64 68 74 79 81 83 84 86 92 96 95 91
302 308 310 309 307 307 306 306 305 305 305 306 309 311 313 313 314 312 313 317 324 328 327 327 328 333 338 341 340 339 340 341 343 344 344 343 342 345 349 351 354 358 354 345 342 345 344 344 345 346 350 357 3 1 357 354 350 349 348 351 357 1 2 5 11 19 25 26 27 37 43 51 60 65 70 79 90 92 93 94 98 103 103 99 94
300 306 309 308 306 305 303 303 302 303 304 305 308 311 312 312 311 310 311 315 322 325 324 324 326 331 335 336 336 337 338 339 341 342 343 342 342 344 348 349 351 355 351 345 343 345 345 345 346 346 350 357 1 359 354 349 347 346 344 349 355 0 6 10 15 23 35 39 43 51 55 62 71 81 89 103 120 115 110 111 115 115 106 102 100
302 306 306 306 306 303 302 301 300 301 301 303 306 308 308 308 308 306 308 312 319 322 321 322 323 328 331 332 333 334 335 338 340 341 340 340 342 344 347 348 347 350 347 344 344 345 345 345 347 346 349 354 359 359 354 349 348 346 346 353 359 4 10 15 18 27 45 54 58 62 63 69 79 93 111 139 151 141 127 127 128 120 111 109 107
308 308 305 305 305 304 303 302 301 299 299 301 303 305 304 303 303 302 304 309 316 318 317 319 321 324 326 328 330 330 332 336 338 339 337 338 342 344 347 347 344 346 345 342 341 343 344 344 346 347 348 350 355 357 353 349 349 350 354 0 5 8 15 20 20 27 47 60 65 69 69 68 78 91 152 246 202 163 143 143 136 128 127 123 111
308 307 305 305 305 305 304 303 301 299 299 300 301 301 300 298 298 298 300 306 311 311 312 315 318 319 321 324 325 325 330 335 336 336 335 335 340 344 346 344 339 343 343 339 337 339 341 341 344 347 349 347 351 356 355 353 355 0 4 7 10 10 14 22 24 32 50 64 71 75 76 71 65 17 304 286 248 197 172 161 150 152 151 134 117
307 307 308 307 307 306 304 302 300 299 298 298 298 296 295 294 293 294 296 301 305 305 307 311 313 314 317 319 318 321 327 332 334 333 332 333 337 343 345 341 333 339 342 338 333 334 337 338 342 347 348 342 345 355 359 2 6 9 8 7 8 9 13 20 23 34 56 72 79 81 75 60 23 335 303 290 278 255 225 222 225 225 225 183 147
311 311 310 310 309 307 304 301 298 296 294 294 293 291 290 288 288 289 293 297 298 298 301 305 307 309 312 313 314 318 323 327 330 329 329 330 334 341 344 337 325 332 340 338 331 330 333 336 340 345 345 340 342 353 1 6 5 6 5 4 4 5 12 17 20 30 49 70 75 69 48 20 353 330 308 297 287 274 261 262 264 267 269 264 257
314 313 312 312 310 307 303 299 295 292 290 289 288 286 284 283 284 286 288 290 289 291 296 300 302 304 306 307 311 316 319 322 325 326 326 327 330 338 342 332 316 324 335 337 332 328 330 333 337 340 341 340 342 348 355 358 355 358 2 3 1 1 8 13 18 22 27 61 70 56 27 1 338 324 311 299 287 275 267 263 261 261 261 259 260
315 316 315 314 312 309 305 299 294 291 287 286 284 281 280 280 280 281 281 281 282 286 292 296 297 299 300 303 309 314 316 318 320 322 323 323 325 334 339 327 307 319 331 336 335 330 328 330 332 335 337 339 341 344 350 347 343 349 358 2 0 359 4 9 13 13 6 37 64 54 23 347 321 311 303 292 281 272 265 262 260 260 260 259 259
317 318 317 316 314 312 308 302 296 292 286 282 280 278 277 277 277 276 275 276 279 283 288 292 293 294 297 301 308 312 314 314 317 319 319 319 321 330 335 318 297 314 329 336 338 334 327 327 328 329 332 335 336 337 343 343 339 345 353 357 358 357 357 1 8 7 3 17 31 18 355 328 319 308 297 286 277 271 267 264 262 261 261 260 260
319 320 320 320 318 315 311 305 299 295 289 283 279 277 275 274 273 272 272 274 277 281 286 288 289 291 295 301 308 311 312 312 313 315 315 315 316 325 331 308 284 308 327 335 339 339 330 325 324 324 326 328 329 325 329 335 334 337 342 345 351 353 349 350 356 360 1 7 359 344 338 333 324 311 296 287 281 277 273 270 268 266 265 264 263
323 324 323 322 321 318 313 306 301 296 290 284 279 274 271 270 270 270 271 273 275 280 283 285 286 289 295 303 307 308 310 309 309 311 312 312 312 320 325 301 272 299 323 331 336 342 336 326 319 317 318 320 323 320 318 322 327 330 333 336 341 344 342 340 342 346 352 348 339 332 332 330 320 306 295 288 283 280 277 275 273 272 271 271 269
321 323 323 322 321 318 312 306 299 292 286 281 277 271 267 266 267 269 270 271 274 279 282 282 284 289 297 303 304 306 307 306 306 307 308 308 308 314 320 297 262 285 316 326 331 339 341 333 319 310 311 316 319 319 318 317 324 328 329 331 335 335 334 333 332 331 335 331 321 318 318 314 305 294 288 284 282 280 279 280 280 279 277 275 274
318 320 321 322 320 316 311 304 296 287 282 279 274 269 266 265 267 270 271 272 275 280 282 283 285 292 299 301 303 304 305 304 303 304 304 304 305 310 315 295 256 270 306 319 323 333 341 339 325 308 304 311 315 315 315 316 321 326 325 325 328 329 327 326 323 318 315 309 301 295 292 292 288 284 279 278 278 279 280 281 282 282 281 279 279
317 319 321 322 319 316 311 304 293 284 279 276 275 273 271 270 273 275 275 275 277 282 284 285 291 297 299 300 302 303 302 301 300 301 301 301 302 307 310 293 254 259 292 309 314 323 333 338 330 314 299 299 307 309 310 311 314 317 319 320 321 323 323 322 317 309 302 298 294 287 281 280 278 277 275 273 273 274 275 277 278 279 279 279 280
315 318 321 322 320 316 312 304 291 280 274 273 277 277 276 276 278 278 276 276 280 284 286 291 296 298 298 299 300 300 299 298 298 298 298 299 301 304 305 290 257 254 276 294 304 312 320 329 330 320 305 291 295 301 302 305 309 309 312 316 318 319 318 318 313 303 297 296 294 290 286 282 277 274 273 272 272 271 270 270 271 272 272 273 275
313 317 320 322 320 317 312 302 289 278 272 272 277 279 279 280 282 282 280 280 282 285 289 294 295 295 297 297 298 298 297 297 297 296 297 298 300 301 299 284 261 254 266 279 291 300 307 317 323 319 312 295 285 285 290 297 298 298 303 309 315 317 315 314 312 301 295 296 295 295 293 289 285 281 278 275 273 273 272 270 269 269 269 270 271
313 317 321 323 320 317 312 300 286 277 273 274 277 280 282 285 289 288 286 287 288 289 292 293 293 294 295 295 296 296 295 294 294 294 295 297 299 299 293 277 262 257 262 270 280 290 298 310 317 315 313 302 288 277 275 286 287 287 295 304 309 312 312 308 307 302 295 297 298 298 297 294 293 291 288 284 279 277 276 276 274 272 270 270 271
311 315 319 321 319 316 312 301 287 278 276 277 278 282 287 291 294 292 291 292 292 292 291 291 292 292 292 293 294 294 293 291 291 292 294 295 295 293 288 276 264 261 263 268 277 285 292 302 308 308 308 301 294 287 273 279 286 284 285 294 301 304 307 303 300 298 295 298 299 298 298 296 295 295 295 293 290 285 281 280 278 276 274 273 272
308 312 315 317 316 313 309 302 289 280 280 282 282 284 288 292 294 292 290 290 291 291 290 290 291 290 289 290 292 291 290 288 288 290 291 291 288 286 285 279 271 267 266 270 276 283 288 294 298 301 303 296 289 291 283 278 284 285 279 280 288 293 300 300 296 291 289 295 298 296 295 294 294 294 296 296 295 293 289 285 282 280 278 278 276
304 309 311 313 313 310 305 299 288 280 281 283 285 287 288 292 293 290 287 286 287 288 288 289 289 288 287 287 288 288 287 286 285 286 285 284 282 282 282 280 276 271 268 270 274 280 285 289 293 294 296 294 286 282 281 279 282 283 278 275 281 287 292 295 295 288 282 287 290 290 291 291 292 293 294 294 294 294 293 292 287 282 280 280 280
301 305 307 309 310 307 300 293 282 276 278 279 284 290 289 290 289 285 282 281 282 282 283 284 286 286 285 285 284 284 285 284 282 281 280 280 281 279 279 278 274 271 268 268 271 277 283 286 289 288 289 290 286 278 271 273 278 279 276 276 281 285 287 290 292 287 279 282 283 282 286 290 293 295 295 295 294 293 293 293 291 285 280 280 280
299 302 305 307 306 303 296 287 276 270 270 272 278 284 284 284 282 280 277 275 275 276 277 279 281 283 284 284 282 281 283 282 279 278 277 278 278 274 273 274 272 271 269 269 270 273 278 281 283 283 282 283 282 278 269 267 273 276 276 278 281 283 286 289 290 285 278 278 279 278 284 291 295 298 299 298 298 296 294 292 290 285 280 279 279
298 302 304 305 303 299 292 283 271 261 258 262 269 275 277 277 275 276 275 272 271 272 274 277 277 279 281 282 280 280 281 280 278 276 275 275 275 271 270 271 271 272 272 273 273 272 275 277 278 278 277 276 275 273 268 263 267 273 276 281 281 280 286 290 286 280 275 273 274 276 282 291 297 299 299 300 300 299 296 293 289 284 277 275 276
299 303 304 304 301 295 289 281 272 263 259 259 264 273 275 271 269 273 274 272 270 270 272 275 275 276 279 280 280 280 279 278 277 275 273 272 272 271 270 270 271 272 273 273 273 273 274 276 277 277 275 272 269 267 261 256 260 266 273 281 282 280 285 289 283 277 272 267 267 270 274 283 294 301 303 302 301 299 295 292 289 283 276 271 271
301 302 303 302 296 288 283 280 278 273 269 264 268 276 270 262 269 276 275 271 268 268 270 273 275 277 279 280 281 283 280 277 276 274 271 269 268 268 268 269 270 271 271 272 272 272 272 273 275 275 273 268 264 260 255 252 252 256 266 276 278 279 283 285 283 281 272 261 259 266 270 273 282 295 304 305 301 298 295 292 288 283 276 271 269
300 300 300 296 287 278 275 276 277 275 269 264 267 268 261 267 279 281 275 269 265 265 269 272 274 276 278 280 283 284 281 277 275 274 272 269 267 267 267 269 270 270 271 270 271 270 268 269 270 268 265 260 256 253 250 248 245 251 263 270 271 275 279 280 282 281 270 256 254 262 270 273 276 283 294 300 299 296 294 292 289 286 280 275 272
299 299 297 290 278 268 268 270 272 274 272 269 266 260 263 274 281 279 271 265 262 262 266 269 272 275 278 280 283 283 281 277 274 273 271 268 268 267 267 268 269 270 270 269 268 266 264 262 262 262 258 252 249 247 246 246 243 248 258 262 265 269 272 275 277 274 265 255 254 261 269 273 274 275 281 292 295 293 292 292 290 288 284 279 276
299 297 293 285 273 264 265 268 272 276 278 277 270 263 267 274 276 273 267 262 259 259 262 267 273 276 278 280 282 283 281 277 274 272 269 267 267 267 266 267 268 269 270 270 267 264 262 256 254 254 251 245 244 244 244 244 242 246 255 261 262 263 266 271 270 268 263 255 256 262 269 272 273 272 275 285 290 290 290 291 291 290 286 282 279
297 294 287 278 267 261 261 265 270 274 278 277 268 262 263 263 264 267 265 262 259 259 263 269 275 278 279 281 282 283 280 275 271 268 267 266 266 266 266 266 267 269 271 271 267 262 259 255 249 246 244 242 243 243 243 243 244 249 257 261 260 261 264 267 265 264 262 256 256 263 269 271 271 270 273 280 286 290 289 287 289 289 288 285 281
295 292 286 274 263 258 259 264 269 272 273 267 259 249 243 243 250 268 270 265 263 263 267 270 275 278 279 281 282 282 279 274 270 266 265 266 267 267 266 265 266 269 270 270 267 262 258 254 248 243 243 243 243 243 243 245 247 252 257 258 259 261 263 263 263 264 261 255 255 262 267 267 268 269 270 275 283 290 289 283 283 284 285 285 284
295 293 288 278 266 258 258 263 266 264 254 250 247 227 219 231 245 264 273 267 265 265 267 271 273 275 276 279 282 283 279 274 272 270 267 265 266 265 263 262 264 267 268 267 267 263 259 255 248 243 244 246 246 243 243 246 249 253 255 256 257 258 260 260 261 262 257 249 252 261 264 263 265 268 269 274 282 287 286 282 281 281 282 284 286
296 295 293 287 275 261 257 260 252 239 233 236 229 211 213 239 245 254 268 262 259 259 262 266 268 270 275 281 284 284 280 276 274 271 265 262 262 261 261 261 263 265 267 267 266 264 260 254 247 243 244 247 246 242 243 247 248 251 253 252 253 254 256 256 257 255 247 242 248 259 262 262 265 269 272 277 283 285 283 280 279 280 280 281 283
295 295 295 289 275 261 257 253 237 227 230 229 215 211 226 247 245 253 265 258 253 251 255 258 261 267 273 279 280 279 277 275 273 266 262 261 261 261 261 261 261 263 266 267 266 264 262 255 247 242 241 245 246 244 245 248 249 251 252 248 247 250 252 254 252 245 240 241 250 258 261 262 266 271 276 280 283 283 280 277 277 279 278 278 280
290 289 289 282 269 261 257 251 239 232 235 236 233 231 240 247 247 255 266 265 257 251 251 254 258 264 271 276 276 275 275 274 271 265 262 262 262 263 261 260 261 263 265 266 266 266 263 257 248 240 238 240 246 249 248 248 250 250 248 246 244 247 252 251 242 236 239 245 251 257 260 262 266 271 276 280 281 280 278 277 279 279 278 277 276
284 285 284 276 267 262 258 254 247 241 241 243 247 249 249 249 248 252 262 267 262 257 257 257 260 265 272 277 275 275 276 274 272 267 265 264 264 264 262 263 264 263 263 266 268 269 265 257 248 240 236 237 242 249 251 248 248 248 245 244 243 246 250 244 237 237 243 247 250 255 260 263 264 268 274 276 275 275 277 278 280 279 275 273 273
281 282 282 274 264 261 261 258 250 244 243 244 247 252 254 253 249 250 254 257 256 258 261 262 265 270 275 275 276 280 280 278 273 269 266 265 265 265 264 266 265 264 266 269 271 272 267 257 246 239 236 237 240 247 251 245 242 245 245 242 242 246 244 240 241 244 247 249 250 254 259 259 260 266 273 273 271 271 274 277 277 273 266 266 271
277 279 280 273 262 256 257 259 255 249 246 244 245 250 256 257 253 250 249 252 252 252 258 264 268 272 273 271 274 278 279 278 274 272 271 268 266 267 268 267 266 269 272 275 279 275 264 253 244 239 237 239 241 245 248 245 242 244 244 240 239 243 240 239 244 246 248 249 251 256 258 258 262 268 271 269 268 268 272 275 271 266 261 262 265
275 278 279 274 265 258 252 253 255 254 253 251 251 253 256 260 258 252 247 248 250 246 249 258 264 267 269 269 272 274 274 275 274 272 271 268 267 269 271 272 273 276 279 283 283 270 250 241 240 241 239 238 240 242 243 243 242 244 245 239 231 234 235 237 244 246 247 249 252 254 255 259 264 267 267 265 265 266 270 272 268 262 259 260 259
276 279 279 277 273 266 256 250 250 255 257 259 261 262 261 260 258 254 249 248 249 248 247 251 256 259 262 264 266 271 272 272 272 269 267 267 268 268 269 274 277 279 288 291 277 248 231 234 238 240 240 238 239 243 244 242 241 242 244 237 225 227 232 235 243 249 251 252 253 253 254 260 263 263 264 263 264 268 270 269 265 260 258 258 257
281 283 283 281 278 271 262 254 250 251 255 260 264 266 266 263 258 256 253 252 253 254 251 251 257 259 261 263 263 266 269 270 269 267 265 265 266 267 267 271 273 275 286 292 271 240 236 235 235 238 243 244 241 243 246 241 237 238 238 233 225 226 232 236 242 249 252 254 256 257 258 260 261 262 263 266 269 270 269 267 261 257 257 257 255
288 289 288 288 288 286 281 271 261 255 256 259 262 264 264 262 259 257 256 257 259 262 261 261 267 269 266 264 265 267 269 270 269 266 266 266 267 270 270 268 269 271 276 277 270 261 252 238 234 238 246 249 242 243 247 240 232 233 233 229 228 229 232 236 242 249 253 255 256 257 258 260 262 265 267 272 274 270 268 265 260 256 254 253 253
294 292 293 295 297 298 296 287 274 264 260 260 260 262 265 265 264 262 262 262 264 269 272 271 272 273 270 265 266 271 271 271 270 267 265 267 271 273 271 267 265 267 267 265 268 268 264 251 239 236 243 246 241 243 245 235 228 231 231 227 228 231 233 237 244 251 255 256 256 257 259 260 261 264 269 274 274 270 267 264 260 254 251 252 253
296 292 292 293 292 291 288 279 271 265 260 257 256 259 263 265 265 264 265 263 264 268 271 272 270 270 270 266 265 269 270 270 269 268 265 263 266 266 266 265 261 262 261 261 264 262 266 262 244 235 236 238 239 238 235 229 223 227 231 230 231 234 238 242 247 252 254 255 255 256 258 260 261 262 266 270 272 271 266 262 259 253 251 254 256
291 289 288 282 273 270 273 270 268 267 265 263 262 261 261 261 264 268 269 267 265 265 268 272 272 271 269 264 263 266 268 269 270 269 265 260 261 261 260 259 255 257 261 260 259 255 260 261 248 236 227 227 235 233 227 224 222 227 233 238 238 239 243 246 249 251 251 252 253 254 257 260 264 265 262 259 261 264 263 262 258 253 253 256 259
287 287 286 282 271 263 262 263 266 269 271 271 270 268 265 264 269 277 281 276 269 268 270 271 270 270 267 261 263 268 269 271 272 269 264 261 262 260 254 252 252 254 257 257 256 253 253 258 258 244 227 225 233 233 228 227 230 234 236 238 239 241 246 249 249 250 251 251 252 254 258 261 264 266 264 260 258 258 259 260 257 254 256 260 262
285 285 285 282 275 269 265 263 264 266 269 272 273 274 274 274 278 283 286 282 272 267 269 270 267 267 263 257 260 266 268 271 272 268 264 263 262 258 252 251 252 253 253 251 250 249 250 258 259 243 229 228 230 232 233 232 233 235 235 237 240 244 248 249 250 252 252 252 252 254 258 259 261 264 267 266 263 261 259 258 257 257 259 262 264
281 280 279 275 271 270 268 266 267 268 269 271 272 274 277 280 284 285 283 279 271 266 267 271 272 268 260 254 257 261 264 269 269 267 266 264 262 260 256 253 253 253 250 245 245 247 249 252 250 241 235 233 230 230 234 233 233 236 238 241 244 245 247 248 249 250 251 251 251 252 252 251 253 255 258 259 261 261 259 257 258 258 260 261 262
Height
5885 5885 5885 5885 5884 5884 5884 5884 5883 5883 5883 5882 5882 5881 5881 5880 5880 5879 5879 5878 5878 5877 5876 5876 5875 5874 5873 5873 5872 5871 5869 5868 5868 5868 5867 5866 5866 5865 5864 5863 5863 5862 5861 5860 5860 5859 5858 5858 5857 5856 5856 5856 5856 5855 5855 5855 5854 5854 5853 5853 5852 5852 5851 5850 5850 5850 5849 5849 5848 5848 5848 5846 5845 5846 5847 5847 5848 5848 5848 5848 5848 5848 5848 5848 5848
5885 5885 5884 5883 5883 5883 5883 5882 5882 5882 5882 5881 5881 5880 5880 5880 5879 5879 5878 5878 5877 5877 5876 5875 5875 5874 5873 5873 5872 5870 5869 5868 5868 5868 5867 5866 5865 5865 5864 5863 5863 5862 5861 5860 5859 5859 5858 5857 5857 5856 5856 5856 5856 5855 5855 5855 5854 5854 5853 5853 5852 5852 5851 5851 5851 5851 5850 5849 5848 5848 5847 5846 5846 5847 5848 5848 5849 5849 5849 5848 5848 5848 5848 5848 5848
5884 5884 5883 5883 5882 5882 5882 5881 5881 5881 5881 5880 5880 5880 5879 5879 5878 5878 5877 5877 5877 5876 5876 5875 5874 5873 5873 5872 5871 5870 5869 5868 5868 5867 5867 5866 5865 5864 5863 5863 5862 5861 5860 5860 5859 5858 5858 5857 5857 5856 5856 5856 5856 5855 5855 5854 5854 5854 5853 5853 5852 5852 5851 5851 5851 5850 5849 5847 5847 5847 5846 5845 5847 5848 5848 5849 5849 5849 5849 5848 5848 5849 5849 5848 5848
5883 5883 5882 5882 5881 5881 5881 5881 5880 5880 5880 5879 5879 5879 5878 5878 5877 5877 5876 5876 5876 5876 5875 5874 5873 5873 5872 5872 5870 5869 5868 5868 5868 5867 5867 5866 5865 5864 5863 5862 5862 5861 5860 5859 5858 5858 5858 5857 5857 5856 5856 5855 5855 5855 5855 5854 5854 5854 5853 5853 5852 5852 5851 5851 5850 5849 5848 5847 5847 5847 5846 5847 5848 5848 5849 5849 5849 5849 5849 5849 5849 5849 5849 5849 5848
5882 5882 5881 5881 5880 5880 5880 5880 5879 5879 5879 5878 5878 5878 5877 5877 5876 5876 5876 5876 5876 5875 5874 5873 5872 5872 5872 5871 5870 5869 5868 5868 5867 5867 5866 5865 5864 5863 5863 5862 5861 5861 5860 5859 5858 5858 5857 5857 5856 5856 5855 5855 5855 5855 5855 5854 5854 5853 5853 5852 5852 5852 5851 5851 5850 5850 5849 5849 5849 5848 5848 5848 5849 5849 5849 5850 5850 5850 5850 5849 5849 5849 5849 5849 5849
5882 5881 5880 5880 5879 5879 5879 5879 5878 5878 5877 5877 5877 5876 5876 5876 5875 5875 5875 5874 5874 5874 5873 5872 5871 5871 5871 5870 5870 5869 5868 5867 5867 5867 5866 5865 5864 5863 5862 5862 5861 5860 5860 5859 5858 5857 5857 5856 5856 5856 5855 5855 5855 5855 5854 5854 5854 5853 5853 5852 5852 5852 5851 5851 5851 5851 5850 5850 5849 5849 5849 5849 5849 5850 5850 5850 5850 5850 5850 5850 5850 5850 5850 5849 5849
5880 5880 5879 5879 5878 5878 5878 5877 5877 5876 5876 5876 5875 5875 5875 5874 5874 5873 5873 5873 5873 5872 5871 5871 5870 5870 5870 5870 5869 5868 5867 5867 5866 5866 5865 5864 5864 5863 5862 5861 5861 5860 5859 5858 5858 5857 5857 5856 5856 5855 5855 5855 5855 5855 5854 5854 5854 5853 5853 5852 5852 5852 5851 5851 5851 5851 5850 5850 5849 5849 5849 5849 5850 5850 5850 5850 5850 5850 5850 5850 5850 5850 5850 5850 5849
5879 5879 5878 5878 5877 5877 5877 5876 5876 5875 5875 5874 5874 5874 5873 5873 5872 5872 5872 5872 5872 5871 5871 5870 5870 5870 5869 5869 5868 5867 5866 5866 5866 5865 5864 5864 5863 5863 5862 5861 5860 5860 5859 5858 5858 5857 5857 5856 5856 5856 5855 5855 5855 5855 5854 5854 5854 5853 5853 5852 5852 5852 5851 5851 5851 5851 5850 5850 5850 5850 5850 5850 5850 5850 5850 5850 5851 5851 5851 5851 5851 5851 5850 5850 5849
5878 5878 5877 5877 5877 5876 5875 5875 5875 5874 5874 5873 5873 5872 5872 5871 5871 5870 5871 5871 5871 5870 5870 5870 5869 5869 5869 5868 5867 5866 5866 5865 5865 5865 5864 5863 5863 5862 5861 5861 5860 5860 5859 5858 5857 5857 5857 5856 5856 5856 5856 5855 5855 5855 5854 5854 5854 5854 5853 5853 5852 5852 5851 5851 5851 5851 5851 5850 5850 5850 5850 5850 5850 5850 5850 5851 5851 5851 5851 5851 5851 5851 5851 5850 5850
5877 5876 5876 5876 5875 5875 5874 5874 5873 5873 5872 5872 5872 5871 5870 5870 5869 5869 5870 5870 5870 5870 5869 5869 5869 5868 5868 5867 5866 5865 5864 5865 5865 5864 5863 5862 5862 5862 5861 5860 5860 5859 5859 5858 5857 5857 5857 5856 5856 5855 5855 5855 5855 5855 5854 5854 5854 5854 5853 5853 5852 5852 5852 5851 5851 5851 5851 5850 5850 5850 5850 5850 5850 5850 5851 5851 5851 5851 5851 5851 5851 5851 5851 5850 5850
5875 5875 5874 5874 5874 5873 5873 5872 5872 5872 5871 5871 5870 5870 5869 5869 5868 5869 5869 5869 5869 5869 5869 5869 5868 5868 5867 5866 5865 5864 5863 5863 5864 5863 5862 5862 5861 5862 5861 5860 5859 5859 5859 5858 5858 5857 5857 5856 5856 5855 5855 5855 5855 5855 5854 5854 5854 5854 5853 5853 5853 5852 5852 5851 5851 5851 5851 5851 5850 5850 5850 5850 5850 5850 5851 5851 5851 5851 5851 5851 5851 5851 5851 5850 5850
5873 5873 5872 5872 5872 5872 5871 5871 5870 5870 5870 5869 5869 5868 5868 5868 5868 5868 5868 5868 5868 5868 5868 5868 5867 5867 5866 5865 5864 5863 5862 5862 5863 5863 5862 5861 5861 5861 5861 5860 5859 5858 5858 5858 5857 5857 5857 5856 5856 5855 5855 5855 5855 5855 5854 5854 5854 5853 5853 5853 5853 5853 5852 5852 5851 5851 5851 5850 5850 5850 5850 5850 5850 5850 5851 5851 5851 5851 5851 5851 5851 5850 5850 5850 5850
5871 5871 5871 5871 5870 5870 5870 5870 5869 5869 5868 5868 5867 5867 5867 5867 5867 5867 5867 5867 5867 5867 5867 5867 5866 5866 5865 5864 5863 5862 5861 5861 5861 5862 5861 5860 5860 5860 5860 5860 5859 5858 5857 5857 5857 5857 5857 5856 5856 5855 5855 5855 5855 5854 5854 5854 5853 5853 5853 5853 5853 5853 5852 5852 5852 5851 5851 5850 5850 5850 5850 5850 5850 5850 5850 5850 5850 5850 5850 5850 5850 5850 5850 5850 5849
5869 5869 5869 5869 5869 5869 5868 5868 5867 5867 5866 5866 5865 5865 5865 5865 5865 5865 5866 5866 5866 5866 5866 5866 5865 5864 5864 5863 5862 5862 5861 5860 5860 5861 5860 5859 5859 5860 5860 5859 5858 5858 5857 5856 5856 5857 5857 5856 5855 5855 5855 5855 5855 5854 5854 5854 5853 5853 5853 5853 5853 5852 5852 5852 5852 5851 5851 5850 5850 5849 5849 5849 5849 5850 5850 5850 5850 5850 5850 5850 5850 5850 5849 5849 5849
5867 5867 5867 5867 5867 5867 5867 5866 5865 5865 5864 5864 5863 5863 5864 5864 5864 5864 5864 5865 5865 5865 5865 5864 5864 5863 5863 5862 5861 5861 5860 5858 5858 5859 5860 5859 5858 5859 5859 5859 5858 5857 5856 5855 5855 5856 5856 5856 5855 5855 5855 5855 5855 5854 5854 5854 5853 5853 5853 5853 5852 5852 5852 5852 5851 5851 5850 5850 5849 5849 5849 5849 5849 5849 5849 5850 5850 5850 5850 5850 5849 5849 5849 5849 5848
5867 5867 5866 5866 5865 5865 5864 5864 5863 5863 5862 5862 5862 5862 5862 5862 5863 5863 5863 5863 5863 5864 5864 5863 5862 5862 5861 5860 5860 5860 5859 5857 5857 5858 5858 5858 5857 5858 5859 5858 5858 5857 5856 5855 5854 5854 5855 5856 5855 5855 5854 5854 5854 5854 5854 5854 5853 5853 5853 5852 5852 5852 5851 5851 5851 5850 5850 5850 5849 5849 5849 5849 5849 5849 5849 5849 5849 5849 5849 5849 5849 5849 5849 5848 5848
5867 5866 5866 5865 5864 5863 5863 5862 5861 5861 5861 5861 5860 5860 5861 5861 5861 5861 5861 5862 5862 5862 5862 5862 5861 5860 5859 5859 5859 5858 5858 5856 5855 5856 5857 5857 5856 5857 5858 5858 5857 5857 5856 5855 5854 5854 5855 5855 5855 5854 5854 5854 5854 5854 5854 5854 5853 5853 5853 5852 5852 5852 5851 5851 5851 5850 5850 5849 5849 5849 5849 5849 5849 5849 5849 5849 5849 5849 5849 5849 5849 5848 5848 5848 5847
5865 5865 5864 5864 5863 5862 5861 5860 5859 5859 5859 5859 5859 5860 5860 5860 5860 5860 5860 5860 5861 5861 5861 5861 5860 5859 5858 5858 5858 5857 5857 5855 5854 5853 5854 5855 5855 5856 5857 5857 5857 5857 5856 5855 5854 5853 5854 5854 5854 5854 5854 5854 5854 5853 5853 5853 5853 5853 5853 5852 5852 5852 5851 5851 5851 5850 5850 5849 5849 5849 5849 5849 5849 5849 5848 5848 5848 5848 5848 5848 5848 5848 5848 5847 5847
5863 5863 5862 5862 5861 5860 5859 5858 5857 5857 5858 5858 5859 5859 5859 5859 5859 5859 5859 5860 5860 5860 5859 5859 5858 5858 5858 5857 5857 5856 5855 5854 5853 5852 5852 5853 5854 5855 5855 5856 5856 5856 5856 5855 5854 5853 5853 5854 5854 5853 5853 5853 5853 5853 5853 5853 5853 5852 5852 5852 5852 5852 5851 5851 5850 5850 5849 5849 5849 5848 5848 5848 5848 5848 5848 5848 5848 5848 5848 5847 5847 5847 5847 5846 5846
5862 5861 5861 5860 5859 5858 5857 5856 5856 5856 5856 5857 5857 5858 5858 5858 5858 5858 5858 5858 5859 5858 5858 5857 5857 5857 5856 5856 5856 5855 5854 5853 5852 5851 5851 5851 5852 5853 5854 5854 5855 5855 5855 5855 5853 5853 5853 5853 5853 5853 5852 5852 5852 5852 5852 5852 5852 5852 5852 5852 5852 5852 5851 5851 5850 5850 5849 5849 5849 5848 5848 5848 5848 5847 5847 5847 5847 5847 5847 5846 5846 5846 5846 5845 5845
5860 5859 5859 5858 5857 5856 5855 5855 5855 5855 5855 5856 5856 5856 5857 5857 5857 5856 5856 5857 5857 5857 5856 5855 5855 5855 5855 5854 5854 5854 5853 5852 5851 5850 5849 5849 5850 5851 5853 5853 5853 5854 5854 5854 5853 5852 5852 5852 5852 5852 5852 5852 5851 5851 5851 5851 5851 5851 5852 5852 5851 5851 5851 5850 5850 5849 5849 5849 5848 5848 5848 5848 5847 5847 5847 5846 5846 5846 5846 5845 5845 5845 5845 5844 5844
5857 5857 5857 5856 5855 5855 5854 5854 5853 5854 5854 5855 5855 5855 5855 5855 5855 5855 5855 5855 5855 5855 5854 5854 5854 5853 5853 5853 5852 5852 5851 5851 5850 5849 5848 5848 5848 5849 5851 5852 5852 5853 5853 5853 5852 5851 5851 5852 5852 5851 5851 5851 5851 5850 5850 5850 5850 5851 5851 5851 5851 5851 5850 5850 5849 5849 5848 5848 5848 5848 5847 5847 5847 5847 5846 5846 5845 5845 5845 5844 5844 5844 5844 5843 5843
5856 5855 5855 5855 5854 5853 5852 5852 5852 5852 5853 5854 5853 5853 5853 5854 5853 5853 5853 5853 5853 5853 5853 5852 5852 5851 5851 5851 5850 5850 5850 5849 5849 5848 5847 5847 5847 5847 5848 5850 5851 5851 5852 5852 5852 5851 5850 5851 5851 5851 5850 5850 5850 5849 5849 5849 5849 5849 5850 5850 5850 5850 5850 5849 5849 5848 5848 5848 5847 5847 5847 5847 5846 5846 5846 5845 5845 5844 5844 5843 5843 5843 5842 5842 5842
5854 5854 5854 5853 5853 5851 5851 5851 5850 5851 5851 5852 5852 5851 5851 5851 5851 5851 5851 5851 5851 5851 5850 5850 5849 5849 5849 5848 5848 5848 5848 5848 5847 5847 5845 5845 5845 5846 5846 5847 5848 5849 5850 5851 5851 5850 5849 5850 5850 5850 5849 5848 5848 5848 5848 5848 5848 5848 5848 5849 5849 5849 5849 5849 5848 5848 5847 5847 5847 5846 5846 5846 5846 5845 5845 5845 5844 5844 5843 5843 5842 5842 5842 5841 5841
5852 5852 5852 5852 5851 5850 5849 5848 5848 5848 5849 5850 5850 5849 5849 5849 5849 5848 5848 5848 5848 5848 5848 5847 5847 5847 5846 5846 5846 5846 5846 5846 5845 5845 5844 5843 5844 5844 5844 5845 5846 5847 5848 5849 5849 5848 5848 5848 5848 5848 5848 5847 5847 5847 5847 5847 5847 5847 5847 5847 5848 5848 5848 5848 5848 5847 5847 5846 5846 5846 5845 5845 5845 5844 5844 5844 5844 5843 5843 5842 5842 5842 5841 5841 5840
5850 5850 5850 5850 5849 5848 5847 5846 5846 5846 5847 5847 5847 5847 5847 5847 5846 5846 5845 5845 5845 5845 5845 5844 5844 5844 5844 5844 5844 5844 5844 5844 5843 5843 5842 5842 5842 5842 5842 5843 5844 5845 5845 5846 5847 5847 5846 5846 5846 5846 5846 5846 5845 5845 5845 5846 5846 5846 5846 5846 5847 5847 5847 5847 5847 5846 5846 5846 5845 5845 5845 5844 5844 5844 5843 5843 5842 5842 5842 5841 5841 5841 5840 5840 5840
5848 5848 5848 5847 5846 5845 5844 5843 5843 5844 5844 5845 5845 5845 5845 5844 5843 5843 5842 5842 5842 5842 5842 5842 5842 5842 5842 5842 5842 5842 5842 5842 5842 5841 5841 5840 5840 5841 5841 5841 5842 5842 5843 5844 5845 5845 5844 5844 5844 5844 5844 5843 5843 5844 5844 5844 5844 5844 5845 5845 5846 5846 5846 5846 5846 5845 5845 5845 5844 5844 5844 5844 5843 5843 5842 5842 5841 5841 5841 5840 5840 5840 5839 5839 5839
5845 5845 5845 5844 5844 5843 5842 5841 5841 5842 5842 5842 5842 5842 5842 5841 5841 5840 5840 5839 5839 5839 5839 5839 5839 5839 5839 5840 5840 5841 5841 5840 5840 5840 5839 5839 5838 5839 5839 5839 5839 5840 5841 5842 5842 5842 5842 5841 5841 5841 5841 5841 5841 5841 5841 5842 5842 5842 5843 5843 5844 5844 5845 5845 5844 5844 5844 5844 5843 5843 5843 5843 5842 5842 5841 5841 5840 5840 5839 5839 5839 5838 5838 5838 5838
5843 5842 5842 5842 5841 5841 5840 5839 5839 5840 5840 5840 5840 5840 5839 5839 5838 5838 5837 5837 5836 5836 5837 5837 5837 5837 5837 5838 5839 5839 5839 5839 5838 5838 5837 5837 5836 5836 5836 5836 5837 5837 5838 5839 5840 5840 5840 5839 5839 5838 5838 5839 5839 5839 5839 5840 5840 5840 5841 5841 5842 5842 5843 5843 5843 5843 5843 5843 5842 5842 5842 5842 5841 5841 5841 5840 5840 5839 5839 5838 5838 5837 5837 5837 5837
5840 5840 5840 5839 5839 5838 5838 5837 5837 5837 5837 5837 5837 5837 5837 5837 5836 5835 5835 5834 5834 5834 5834 5834 5834 5835 5835 5836 5836 5837 5837 5837 5836 5836 5835 5834 5834 5834 5834 5834 5834 5835 5836 5837 5837 5837 5837 5837 5836 5836 5836 5836 5836 5836 5836 5837 5838 5839 5839 5840 5840 5841 5841 5841 5841 5841 5841 5841 5841 5841 5841 5840 5840 5840 5840 5839 5839 5838 5838 5837 5837 5836 5836 5836 5836
5838 5837 5837 5837 5836 5836 5835 5835 5835 5834 5835 5835 5835 5836 5835 5834 5834 5833 5832 5831 5831 5832 5832 5832 5832 5832 5833 5833 5834 5834 5834 5834 5834 5833 5833 5832 5832 5832 5832 5832 5832 5832 5833 5834 5835 5835 5835 5835 5834 5834 5834 5834 5834 5834 5834 5835 5836 5837 5837 5838 5838 5839 5840 5840 5840 5840 5840 5840 5840 5840 5840 5839 5839 5839 5839 5838 5838 5838 5837 5836 5836 5836 5835 5835 5835
5835 5835 5835 5834 5834 5834 5833 5833 5832 5832 5833 5833 5833 5833 5833 5833 5832 5830 5829 5829 5829 5829 5829 5829 5829 5829 5830 5830 5830 5831 5831 5831 5831 5831 5831 5830 5830 5830 5830 5830 5829 5829 5830 5831 5832 5832 5832 5832 5832 5832 5832 5832 5832 5832 5832 5833 5834 5835 5835 5836 5837 5837 5838 5838 5838 5838 5839 5839 5839 5838 5838 5837 5837 5837 5837 5837 5837 5837 5836 5836 5835 5835 5834 5834 5834
5833 5833 5832 5832 5832 5832 5831 5831 5831 5831 5831 5831 5831 5831 5831 5830 5829 5828 5827 5827 5827 5826 5826 5827 5827 5827 5827 5827 5827 5828 5828 5828 5828 5828 5828 5828 5828 5828 5828 5827 5827 5827 5828 5828 5829 5829 5830 5830 5830 5830 5830 5830 5830 5830 5830 5831 5832 5833 5833 5834 5835 5835 5836 5836 5836 5837 5837 5837 5837 5837 5836 5836 5836 5835 5835 5835 5836 5835 5835 5835 5835 5834 5833 5833 5833
5831 5831 5830 5830 5830 5830 5829 5829 5829 5829 5829 5828 5828 5828 5828 5828 5826 5825 5825 5824 5824 5824 5824 5824 5824 5824 5825 5825 5825 5825 5824 5824 5825 5826 5826 5826 5825 5826 5826 5825 5825 5825 5825 5825 5826 5826 5826 5827 5828 5828 5828 5828 5829 5829 5829 5829 5830 5831 5831 5832 5832 5833 5833 5834 5834 5835 5835 5835 5835 5835 5835 5835 5834 5834 5834 5834 5834 5834 5834 5834 5834 5833 5833 5833 5833
5829 5829 5829 5829 5828 5828 5827 5827 5826 5826 5826 5826 5825 5825 5825 5825 5823 5822 5822 5821 5821 5821 5821 5822 5822 5822 5822 5821 5821 5821 5821 5822 5823 5824 5824 5823 5823 5823 5823 5823 5823 5822 5822 5823 5823 5823 5824 5824 5825 5826 5826 5826 5827 5827 5828 5828 5828 5828 5829 5829 5830 5830 5831 5832 5832 5832 5833 5833 5834 5833 5833 5833 5833 5833 5833 5833 5833 5833 5833 5833 5833 5833 5833 5832 5832
5827 5827 5827 5827 5827 5826 5825 5824 5824 5824 5824 5823 5823 5823 5823 5822 5821 5820 5819 5819 5819 5818 5818 5819 5819 5819 5819 5819 5818 5818 5818 5819 5821 5821 5820 5820 5820 5820 5821 5821 5820 5820 5820 5820 5821 5821 5821 5822 5822 5823 5823 5824 5825 5826 5827 5827 5826 5826 5827 5827 5828 5828 5829 5829 5829 5830 5831 5831 5832 5832 5832 5831 5831 5831 5832 5832 5832 5831 5832 5832 5832 5832 5832 5832 5831
5826 5826 5826 5826 5826 5825 5823 5823 5823 5822 5822 5822 5821 5821 5821 5820 5819 5818 5817 5817 5816 5816 5816 5816 5816 5815 5816 5816 5815 5814 5815 5817 5819 5818 5817 5817 5818 5818 5819 5818 5818 5817 5817 5817 5818 5818 5819 5819 5819 5820 5821 5822 5823 5824 5825 5825 5825 5825 5825 5825 5826 5826 5826 5826 5827 5828 5829 5829 5830 5830 5830 5830 5830 5830 5830 5830 5830 5830 5830 5831 5830 5831 5831 5831 5831
5824 5823 5824 5824 5823 5823 5822 5821 5821 5821 5821 5821 5820 5820 5820 5819 5818 5817 5816 5815 5814 5815 5814 5814 5813 5813 5813 5813 5812 5812 5812 5815 5816 5815 5814 5815 5816 5816 5816 5815 5815 5815 5814 5814 5815 5815 5816 5816 5817 5818 5819 5820 5821 5822 5822 5823 5823 5824 5824 5824 5824 5824 5824 5825 5825 5826 5827 5828 5828 5828 5828 5828 5828 5829 5829 5829 5829 5829 5829 5829 5829 5829 5830 5830 5830
5821 5820 5821 5821 5821 5820 5820 5819 5820 5819 5819 5819 5819 5818 5818 5817 5816 5815 5815 5814 5813 5814 5813 5813 5812 5812 5812 5812 5810 5810 5810 5812 5813 5812 5812 5813 5813 5813 5813 5813 5813 5812 5812 5812 5812 5813 5813 5814 5815 5816 5817 5818 5819 5819 5820 5821 5822 5822 5822 5823 5823 5823 5823 5823 5824 5825 5825 5826 5826 5826 5826 5826 5827 5827 5827 5827 5828 5828 5828 5828 5828 5828 5829 5829 5829
5819 5817 5817 5818 5819 5818 5818 5817 5817 5817 5816 5816 5816 5816 5816 5816 5815 5814 5814 5813 5813 5813 5812 5811 5810 5811 5812 5811 5809 5808 5809 5810 5811 5810 5810 5811 5811 5810 5810 5811 5810 5810 5810 5810 5810 5810 5810 5811 5812 5814 5815 5815 5816 5817 5818 5819 5820 5820 5821 5821 5821 5821 5821 5822 5822 5823 5823 5824 5824 5824 5824 5824 5825 5825 5826 5826 5826 5827 5827 5827 5827 5827 5828 5828 5828
5816 5815 5814 5815 5816 5816 5816 5816 5815 5815 5814 5814 5814 5815 5815 5814 5814 5813 5812 5811 5811 5811 5810 5809 5809 5810 5811 5809 5807 5806 5806 5808 5808 5808 5808 5808 5808 5808 5808 5808 5808 5807 5808 5808 5807 5807 5807 5808 5809 5811 5812 5813 5814 5815 5816 5816 5817 5818 5818 5818 5819 5819 5819 5820 5820 5821 5822 5822 5822 5823 5822 5823 5823 5824 5825 5825 5825 5825 5826 5826 5826 5826 5827 5827 5826
5814 5813 5812 5813 5814 5814 5814 5813 5813 5812 5812 5812 5813 5813 5813 5813 5813 5812 5810 5809 5808 5808 5807 5806 5806 5807 5808 5808 5806 5805 5805 5806 5806 5805 5805 5805 5805 5806 5805 5805 5805 5805 5805 5805 5804 5803 5804 5805 5807 5808 5809 5810 5811 5812 5813 5814 5815 5816 5816 5816 5817 5817 5817 5817 5818 5819 5819 5820 5821 5821 5821 5821 5822 5823 5823 5824 5824 5824 5824 5825 5825 5825 5825 5825 5825
5812 5812 5812 5812 5812 5812 5812 5811 5811 5810 5810 5810 5811 5811 5811 5812 5811 5810 5809 5807 5806 5805 5803 5803 5802 5804 5806 5806 5805 5804 5804 5804 5804 5803 5803 5803 5803 5803 5802 5803 5804 5803 5802 5802 5800 5799 5801 5803 5805 5806 5807 5808 5809 5809 5810 5811 5812 5813 5814 5814 5815 5815 5815 5816 5816 5816 5817 5818 5819 5819 5819 5819 5820 5821 5822 5822 5823 5823 5823 5824 5824 5824 5824 5824 5824
5810 5810 5810 5810 5810 5810 5810 5809 5809 5809 5808 5808 5809 5809 5809 5809 5809 5808 5807 5806 5804 5802 5801 5801 5801 5802 5804 5805 5804 5802 5802 5803 5802 5801 5801 5801 5801 5801 5801 5801 5802 5801 5801 5800 5798 5798 5800 5801 5803 5804 5804 5805 5806 5806 5807 5808 5809 5810 5811 5812 5812 5813 5813 5814 5815 5815 5815 5816 5817 5818 5817 5818 5819 5820 5820 5821 5822 5822 5822 5822 5822 5822 5822 5822 5822
5808 5808 5807 5807 5807 5807 5808 5808 5808 5807 5807 5807 5807 5806 5806 5806 5806 5806 5805 5804 5803 5802 5802 5802 5801 5801 5803 5804 5802 5800 5800 5801 5800 5798 5799 5798 5798 5799 5799 5799 5799 5799 5799 5799 5798 5798 5799 5800 5801 5802 5802 5802 5803 5804 5805 5806 5806 5808 5809 5809 5810 5810 5811 5813 5813 5813 5814 5815 5816 5816 5816 5817 5817 5818 5819 5820 5820 5820 5820 5820 5820 5821 5821 5821 5821
5807 5806 5805 5805 5805 5805 5805 5805 5805 5805 5805 5805 5805 5804 5804 5804 5804 5803 5803 5802 5802 5801 5802 5802 5801 5800 5801 5802 5801 5800 5799 5799 5798 5797 5797 5795 5795 5796 5796 5797 5797 5797 5797 5797 5796 5796 5797 5798 5799 5800 5800 5800 5800 5801 5801 5803 5804 5805 5806 5807 5808 5809 5810 5811 5812 5812 5812 5814 5814 5814 5815 5815 5816 5817 5818 5818 5818 5819 5819 5819 5819 5819 5820 5820 5820
5804 5804 5804 5803 5803 5802 5802 5802 5802 5802 5802 5802 5802 5802 5801 5801 5801 5800 5800 5799 5798 5798 5798 5800 5800 5798 5798 5799 5799 5798 5798 5797 5796 5795 5794 5793 5793 5793 5793 5795 5795 5794 5794 5794 5794 5794 5795 5795 5796 5797 5798 5798 5798 5798 5798 5800 5802 5803 5804 5805 5806 5807 5808 5809 5809 5810 5810 5811 5812 5812 5813 5814 5814 5815 5816 5817 5817 5817 5817 5817 5818 5818 5818 5819 5819
5801 5801 5801 5801 5801 5800 5800 5799 5799 5798 5798 5799 5799 5799 5798 5798 5797 5797 5796 5795 5794 5793 5793 5795 5797 5796 5795 5795 5795 5795 5795 5794 5793 5792 5792 5791 5790 5791 5791 5792 5792 5792 5792 5792 5792 5792 5793 5793 5793 5794 5795 5796 5796 5796 5797 5798 5800 5802 5803 5803 5804 5805 5806 5807 5807 5808 5808 5809 5810 5811 5811 5812 5813 5814 5814 5815 5815 5815 5816 5816 5816 5817 5817 5817 5817
5799 5799 5799 5799 5798 5798 5798 5797 5797 5796 5796 5796 5795 5795 5795 5795 5795 5794 5794 5792 5791 5790 5790 5791 5792 5792 5792 5792 5792 5793 5793 5793 5791 5789 5788 5787 5788 5788 5788 5789 5790 5790 5790 5790 5790 5791 5791 5791 5792 5792 5793 5794 5794 5795 5795 5797 5798 5800 5800 5801 5802 5803 5804 5805 5805 5806 5806 5807 5808 5809 5810 5811 5812 5813 5813 5813 5813 5814 5814 5814 5815 5815 5815 5816 5816
5797 5796 5796 5796 5796 5795 5795 5795 5795 5794 5793 5793 5792 5792 5792 5792 5791 5791 5790 5789 5787 5786 5786 5786 5786 5787 5788 5789 5790 5790 5791 5791 5789 5786 5785 5785 5785 5785 5786 5787 5787 5788 5788 5788 5789 5789 5789 5790 5791 5791 5791 5792 5793 5793 5794 5795 5796 5797 5798 5799 5800 5801 5802 5802 5803 5804 5805 5806 5807 5808 5809 5810 5810 5811 5811 5811 5812 5812 5812 5813 5813 5814 5814 5814 5814
5795 5794 5794 5794 5793 5792 5792 5792 5792 5791 5791 5790 5790 5789 5789 5788 5787 5787 5786 5785 5783 5782 5781 5781 5781 5782 5784 5786 5786 5786 5787 5787 5786 5784 5784 5783 5782 5782 5783 5784 5785 5785 5785 5786 5787 5787 5788 5788 5789 5789 5790 5791 5791 5792 5793 5794 5795 5796 5796 5797 5798 5799 5800 5800 5801 5802 5803 5804 5805 5806 5807 5807 5808 5808 5809 5809 5809 5810 5810 5811 5811 5812 5812 5812 5812